Location: Newark
(45.2500°N, 7.5833°E)
Time: 18:15:36
(UTC+00:00)

Tiros 1 despin weight - Pass Details

Date: 31 January 2020
Orbit: 594 x 642 km, 48.2° (Epoch: 27 February)

Event Time Altitude Azimuth Distance (km) Brightness Sun altitude
Rises 07:54:11 0° 213° (SSW) 2,824 ? 8.6°
Reaches altitude 10° 07:56:40 10° 202° (SSW) 1,931 ? 9.0°
Maximum altitude 08:00:30 29° 142° (SE) 1,111 ? 9.5°
Drops below altitude 10° 08:04:23 10° 83° (E) 1,962 ? 10.1°
Sets 08:06:55 0° 72° (ENE) 2,878 ? 10.4°
